Lexington Weather

Lexington, Massachusetts, USA

46°F
10/22/2019 2:00am 
  • Lexington Conditions: Few Clouds
  • Temperature: 46.0°F / 7.8°CWarmer 0.5°F than last hour.
  • Dew Point: 44.4°FIncreased 1.4°Fsince last hour.
  • Relative Humidity: 94%Increased 3.0% since last hour.
  • Wind: Calm, 10-min avg: Calm, gust: None
  • Barometer: 30.12 in Steady
  • Visibility: 10 miles
  • Rain Today: 0.00 in
  •   

Regional Weather Roundup
for Boston, MA

        
000
ASUS41 KBOX 210700
RWRBOX

REGIONAL WEATHER ROUNDUP
NATIONAL WEATHER SERVICE BOSTON/NORTON MA
300 AM EDT MON OCT 21 2019

NOTE:  "FAIR" INDICATES FEW OR NO CLOUDS BELOW 12,000 FEET WITH NO 
SIGNIFICANT WEATHER AND/OR OBSTRUCTIONS TO VISIBILITY.

MAZALL-210800-
EASTERN MASSACHUSETTS
  
CITY           SKY/WX    TMP DP  RH WIND       PRES   REMARKS
BOSTON         CLOUDY    57  46  66 NE3       30.04F                  
BEVERLY        CLOUDY    52  49  89 N6        30.04S                  
LAWRENCE       CLOUDY    50  48  93 CALM      30.08R                  
BEDFORD        CLOUDY    54  48  80 N5        30.03S                  
BLUE HILL      NOT AVBL                                               
NORWOOD        CLOUDY    55  48  77 CALM      30.03F                  
MARSHFIELD     NOT AVBL                                               
PLYMOUTH       LGT RAIN  53  51  93 NE6       30.01F                  
TAUNTON        LGT RAIN  53  48  83 CALM      30.00F                  
NEW BEDFORD    CLOUDY    52  49  89 NE7       29.99F                  
$$

MAZALL-210800-
CAPE COD AND THE ISLANDS
  
CITY           SKY/WX    TMP DP  RH WIND       PRES   REMARKS
FALMOUTH       CLOUDY    52  48  87 NE5       30.00F                  
HYANNIS        NOT AVBL                                               
CHATHAM        NOT AVBL                                               
PROVINCETOWN   MOCLDY    55  53  93 E8          N/A                   
NANTUCKET      CLOUDY    54  52  93 NE9       29.98F                  
MARTHAS VNYRD  LGT RAIN  55  53  93 NE10      29.98F                  
$$
 
MAZALL-210800-
CENTRAL AND WESTERN MASSACHUSETTS
  
CITY           SKY/WX    TMP DP  RH WIND       PRES   REMARKS
WORCESTER      CLOUDY    48  47  96 NE7       30.03F                  
FITCHBURG      CLOUDY    50  47  89 N5        30.06S                  
ORANGE         FAIR      49  45  86 CALM      30.06S                  
SPRINGFIELD    MOCLDY    49  48  96 N6        30.03S                  
WESTFIELD      FAIR      46  44  93 N7        30.04R                  
NORTH ADAMS    FOG       38  37  97 CALM      30.07R VSB 1/4          
PITTSFIELD     FOG       42  40  92 CALM      30.03S VSB 1/2          
$$
 
RIZALL-210800-
RHODE ISLAND
  
CITY           SKY/WX    TMP DP  RH WIND       PRES   REMARKS
PROVIDENCE     CLOUDY    52  49  89 NE12      30.01F                  
NEWPORT        CLOUDY    53  50  89 N9        29.99F                  
BLOCK ISLAND   CLOUDY    55  51  86 NE12G21   29.97S                  
SMITHFIELD     CLOUDY   N/A N/A N/A NE7       30.02F                  
WESTERLY       LGT RAIN  54  52  93 NE6       29.98F                  
$$
 
CTZALL-210800-
CONNECTICUT
  
CITY           SKY/WX    TMP DP  RH WIND       PRES   REMARKS
BRADLEY INTL   MOCLDY    52  48  86 N7        30.02S                  
HARTFORD       CLOUDY    51  48  89 N5        30.02F                  
BRIDGEPORT     CLOUDY    53  48  83 NE12      29.98F                  
DANBURY        FAIR      49  45  86 NE3       30.01F                  
GROTON         NOT AVBL                                               
NEW HAVEN      CLOUDY    54  49  83 N8        29.99F                  
CHESTER        MOCLDY    50  50 100 NE5       29.98F                  
MERIDEN        CLOUDY    51  47  86 N6        30.01F                  
WILLIMANTIC    CLOUDY    50  48  93 N8        30.02S                  
OXFORD         MOCLDY    49  46  90 NE12      30.00F                  
$$

MEZ002-015-021-024-NHZ003-005-008-011-012-014-VTZ005-008-210800-
NORTHERN NEW ENGLAND
  
CITY           SKY/WX    TMP DP  RH WIND       PRES   REMARKS
PORTLAND ME    CLOUDY    49  46  90 NW3       30.08R                  
BANGOR ME      MOCLDY    47  44  90 CALM      30.09R                  
CONCORD NH     CLOUDY    47  46  97 N3        30.07S                  
MANCHESTER NH  CLOUDY    51  49  92 N7        30.06R                  
NASHUA NH      CLOUDY    50  50 100 NW3       30.07S                  
PORTSMOUTH NH  CLOUDY    51  48  92 NW6       30.05S                  
JAFFREY NH     FOG       47  45  93 VRB5      30.05F VSB 1            
KEENE NH       FOG       44  44 100 N6        30.07S VSB 1/4          
BURLINGTON VT  FAIR      39  37  92 CALM      30.07R                  
MT. WASHINGTON PTCLDY    37  28  70 W13         N/A  WCI  29          
$$

NYZ052-076-210800-
EASTERN NEW YORK
  
CITY           SKY/WX    TMP DP  RH WIND       PRES   REMARKS
ALBANY         FOG       46  44  93 N3        30.08R VSB 1/4          
NEW YORK CITY  CLOUDY    54  48  80 N12       29.98S                  
$$
 
ANZALL-210800-
MARINE OBSERVATIONS
  
STATION/POSITION TIME  TEMP    WIND        PRES    VSBY  WAVE
                       AIR SEA DIR/SP/G                  HT/PER
                 (UTC) (F)     (DEG/KT/KT) (MB)    (MI)  (FT/S)
BOSTON BUOY      0550   56 57   70/  6/  8 1016.8          1/ 8
BUZZARDS BAY     0600   55      60/ 15/ 17 1015.8F
NANTUCKET SOUND  0640      57                N/A
MASS BAY-STELLWA 0604   56 56  100/  8/  8 1017.0F  1 7/8  1/ 3
ISLE OF SHOALS   0600   54     130/  8/  8 1017.5R
S OF BLOCK IS    0630      60                N/A           3/ 4
$$

......................KEY.........................
  SKY/WX - SKY CONDITION/PRESENT WEATHER
  TMP    - TEMPERATURE IN FAHRENHEIT
  DWPT   - DEWPOINT IN FAHRENHEIT
  RH     - RELATIVE HUMIDITY IN PERCENT
  WIND   - DIRECTION AND SPEED IN MPH
  PRES   - MEAN SEA LEVEL PRESSURE IN INCHES OF HG
  WCI    - WIND CHILL INDEX
  VSB    - VISIBILITY IN MILES
  HX     - HEAT INDEX
  TC     - TEMPERATURE IN CELSIUS
  VRB    - VARIABLE WIND DIRECTION
  N/A    - NOT AVAILABLE
  
      

Other recent Regional Weather Roundups

Tue Oct 22, 1:10am

Tue Oct 22, 1:00am

Tue Oct 22, 12:10am

Tue Oct 22, 12:00am

Mon Oct 21, 11:10pm

Mon Oct 21, 11:00pm

Mon Oct 21, 10:10pm

Mon Oct 21, 10:01pm

Mon Oct 21, 9:10pm

Mon Oct 21, 9:00pm

Mon Oct 21, 8:10pm

Mon Oct 21, 8:00pm

Mon Oct 21, 7:10pm

Mon Oct 21, 7:01pm

Mon Oct 21, 6:10pm

Mon Oct 21, 6:01pm

Mon Oct 21, 5:10pm

Mon Oct 21, 5:01pm

Mon Oct 21, 4:10pm

Mon Oct 21, 4:00pm

Mon Oct 21, 3:10pm

Mon Oct 21, 3:01pm

Mon Oct 21, 2:10pm

Mon Oct 21, 2:00pm

Mon Oct 21, 1:10pm

Mon Oct 21, 1:01pm

Mon Oct 21, 12:10pm

Mon Oct 21, 12:00pm

Mon Oct 21, 11:10am

Mon Oct 21, 11:00am

Mon Oct 21, 10:10am

Mon Oct 21, 10:00am

Mon Oct 21, 9:10am

Mon Oct 21, 9:00am

Mon Oct 21, 7:10am

Mon Oct 21, 7:00am

Mon Oct 21, 6:10am

Mon Oct 21, 6:00am

Mon Oct 21, 5:10am

Mon Oct 21, 5:00am

Mon Oct 21, 4:10am

Mon Oct 21, 4:00am

Mon Oct 21, 3:10am

Mon Oct 21, 2:10am

Mon Oct 21, 2:01am

Mon Oct 21, 1:10am

Mon Oct 21, 1:00am

Mon Oct 21, 12:10am

Mon Oct 21, 12:00am

Sun Oct 20, 11:10pm

Sun Oct 20, 11:00pm

Sun Oct 20, 10:10pm

Sun Oct 20, 10:00pm

Sun Oct 20, 9:10pm

Sun Oct 20, 9:01pm

Sun Oct 20, 8:10pm

Sun Oct 20, 8:00pm

Sun Oct 20, 7:10pm

Sun Oct 20, 7:01pm

Sun Oct 20, 6:10pm

Sun Oct 20, 6:00pm

Sun Oct 20, 5:10pm

Sun Oct 20, 5:00pm

Sun Oct 20, 4:10pm

Sun Oct 20, 4:00pm

Sun Oct 20, 3:10pm

Sun Oct 20, 3:00pm

Sun Oct 20, 2:10pm

Sun Oct 20, 2:01pm

Sun Oct 20, 1:10pm

Sun Oct 20, 1:01pm

Sun Oct 20, 12:10pm

Sun Oct 20, 12:00pm

Sun Oct 20, 11:10am

Sun Oct 20, 11:00am

Sun Oct 20, 10:10am

Sun Oct 20, 10:00am

Sun Oct 20, 9:10am

Sun Oct 20, 9:00am

Sun Oct 20, 8:10am

Sun Oct 20, 8:00am

Sun Oct 20, 7:10am

Sun Oct 20, 7:00am

Sun Oct 20, 6:10am

Sun Oct 20, 6:00am

Sun Oct 20, 5:10am

Sun Oct 20, 5:00am

Sun Oct 20, 4:10am

Sun Oct 20, 4:00am

Sun Oct 20, 3:10am

Sun Oct 20, 3:00am

Sun Oct 20, 2:10am

Sun Oct 20, 2:00am

Sun Oct 20, 1:10am

Sun Oct 20, 1:00am

Sun Oct 20, 12:10am

Sun Oct 20, 12:00am

Sat Oct 19, 11:10pm

Sat Oct 19, 11:00pm

Sat Oct 19, 10:10pm

Sat Oct 19, 10:00pm

Sat Oct 19, 9:10pm

Sat Oct 19, 9:00pm

Sat Oct 19, 8:10pm

Sat Oct 19, 8:00pm

Sat Oct 19, 7:10pm

Sat Oct 19, 7:00pm

Sat Oct 19, 6:10pm

Sat Oct 19, 6:00pm

Sat Oct 19, 5:10pm

Sat Oct 19, 5:00pm

Sat Oct 19, 4:10pm

Sat Oct 19, 4:00pm

Sat Oct 19, 3:10pm

Sat Oct 19, 3:01pm

Sat Oct 19, 2:10pm

Sat Oct 19, 2:00pm

Sat Oct 19, 1:10pm

Sat Oct 19, 1:01pm

Sat Oct 19, 12:10pm

Sat Oct 19, 12:00pm

Sat Oct 19, 11:10am

Sat Oct 19, 11:01am

Sat Oct 19, 10:10am

Sat Oct 19, 10:00am

Sat Oct 19, 9:10am

Sat Oct 19, 9:00am

Sat Oct 19, 8:10am

Sat Oct 19, 8:00am

Sat Oct 19, 7:10am

Sat Oct 19, 7:00am

Sat Oct 19, 6:10am

Sat Oct 19, 6:00am

Sat Oct 19, 5:10am

Sat Oct 19, 5:00am

Sat Oct 19, 4:10am

Sat Oct 19, 4:00am

Sat Oct 19, 3:10am

Sat Oct 19, 3:00am

Sat Oct 19, 2:10am

Sat Oct 19, 2:00am

Meta data:

ID: a203bca2-b7e1-4ecd-8330-6c04dcd92d85
Link: https://api.weather.gov/products/a203bca2-b7e1-4ecd-8330-6c04dcd92d85